Regional Weather Roundup
Issued by NWS

Home | Current Version | Previous Version | Text Only | Print | Product List | Glossary On
Versions: 1 2 3 4 5 6 7 8 9 10 11 12 13 14 15 16 17 18 19 20 21 22 23 24 25 26 27 28 29 30 31 32 33 34 35 36 37 38 39 40 41 42 43 44 45 46 47 48 49 50
000
ASUS44 KLIX 130510
RWRLA
LOUISIANA WEATHER ROUNDUP
NATIONAL WEATHER SERVICE NEW ORLEANS LA
1100 PM CST FRI FEB 12 2016

NOTE: "FAIR" INDICATES FEW OR NO CLOUDS BELOW 12,000 FEET WITH NO
      SIGNIFICANT WEATHER AND/OR OBSTRUCTIONS TO VISIBILITY.
      SKY/WX - SKY CONDITION AND SIGNIFICANT WEATHER.
      TMP - AIR TEMPERATURE.    DP   - DEWPOINT TEMPERATURE.
      RH  - RELATIVE HUMIDITY.  PRES - PRESSURE.
      HX  - HEAT INDEX.         WCI  - WIND CHILL INDEX.

*  THESE STATIONS ARE NOT NWS OR FAA STATIONS AND ARE NOT UNDER
   NWS QUALITY CONTROL.

LAZ040-048-061>063-065-066-069-130600-
SOUTHEAST LOUISIANA

CITY           SKY/WX    TMP DP  RH WIND       PRES   REMARKS
N.O. AUDUBON     N/A     64  54  70 MISG        N/A
N.O. INTL ARPT PTCLDY    61  46  57 N6        30.29R
N.O. LAKEFRONT CLEAR     57  49  74 N12       30.29R
N.O. DOWNTOWN* FAIR      64  45  48 MISG      30.29S
RESERVE*       FAIR      62  48  59 N6        30.29S
SLIDELL        CLEAR     56  45  66 N8        30.29R
BATON ROUGE    PTCLDY    59  39  47 NE7       30.29R
BOOTHVILLE     PTCLDY    61  58  90 W7        30.27S
BELLE CHASSE   PTCLDY    61  47  59 N5        30.28S
BOGALUSA*        N/A     55  38  52 N8        30.32S
GALLIANO*      MOCLDY    62  58  88 W5        30.28S
NEW ROADS*     FAIR      56  40  53 NE6       30.30S
GONZALES*      FAIR      61  46  57 CALM      30.28S
HAMMOND*       CLEAR     57  37  47 N7        30.29S
HOUMA*         PTCLDY    58  57  98 NW5       30.29R
PORT FOURCHON* CLEAR     61  59  94 W6        30.29S

$$

LAZ041-044-053-054-130600-
SOUTHWEST LOUISIANA

CITY           SKY/WX    TMP DP  RH WIND       PRES   REMARKS
LAKE CHARLES   MOCLDY    54  53  97 NE5       30.28R FOG
LAFAYETTE      PTCLDY    60  50  69 NE7       30.29S
PATTERSON      MOCLDY    57  55  94 CALM      30.31S
SALT POINT       N/A     57  57 100 CALM      30.28R
NEW IBERIA     CLEAR     57  56  96 CALM      30.29F
CHENAULT AIRPK CLEAR     59  56  90 NE3       30.28S

$$

LAZ027-028-130600-
CENTRAL LOUISIANA

CITY           SKY/WX    TMP DP  RH WIND       PRES   REMARKS
FORT POLK      PTCLDY    57  42  56 NE2       30.29S
ALEXANDRIA INT PTCLDY    55  39  54 NE7       30.30R
ALEXANDRIA     PTCLDY    55  39  54 NE3       30.32R

$$

LAZ001-002-130600-
NORTHWEST LOUISIANA

CITY           SKY/WX    TMP DP  RH WIND       PRES   REMARKS
SHREVEPORT     CLEAR     54  38  54 N9        30.33R
BARKSDALE AFB  CLEAR     49  37  62 N7        30.33R
DTN SHREVEPORT CLEAR     51  39  63 N5        30.34R

$$

LAZ014-016-130600-
NORTHEAST LOUISIANA

CITY           SKY/WX    TMP DP  RH WIND       PRES   REMARKS
MONROE         CLEAR     49  35  58 E7        30.37R
TALLULAH       CLEAR     49  33  54 NE7       30.36S

$$




USA.gov is the U.S. government's official web portal to all federal, state and local government web resources and services.